EUTELSAT HOTBIRD 13F

Last updated on Tue Oct 28 2025 00:02:51 GMT+0000 (Coordinated Universal Time)

1 54048U 22134A 25299.83348505 .00000099 00000+0 00000+0 0 9992 2 54048 0.0544 283.9159 0002000 86.3003 338.3294 1.00273222 11031
UTC large
Height (km)
Speed (km/s)
/
Latitude / Longitude
Inclination (degrees)
Orbital Period (minutes)
Azimuth
Elevation
Range (km)
Doppler Factor

Next 0 passes for location: London (51.5072 / 0.1276)

Sorry there are no passes over London.